Location: Unspecified
(0.0000°N, 0.0000°E)
Time: 19:05:41
(UTC+00:00)

A-11 Canister half - Pass Details

Date: 25 November 2019
Orbit: 1515 x 1685 km, 47.2° (Epoch: 08 December)

Event Time Altitude Azimuth Distance (km) Brightness Sun altitude
Rises 11:23:03 0° 198° (SSW) 4,681 11.8 68.5°
Reaches altitude 10° 11:26:44 10° 186° (S) 3,715 11.5 68.7°
Maximum altitude 11:34:19 27° 131° (SE) 2,656 11.0 69.0°
Drops below altitude 10° 11:42:02 10° 77° (ENE) 3,812 11.2 69.2°
Sets 11:45:50 0° 66° (ENE) 4,824 11.5 69.3°
